EW6167 Weather Reports


time (UTC)temp
C
wind
direction
speed
KPH
gust
KPH
rain 1hr
cm
rain 24hr
cm
rain mn
cm
humidity
%
barometer
mb
20260510205033 22 173 19.3 0.0 0.00 0.00 0.00 19 1013.6
20260510204556 22 223 19.3 0.0 0.00 0.00 0.00 19 1013.6
20260510204009 22 213 17.7 0.0 0.00 0.00 0.00 20 1013.7
20260510203525 22 234 17.7 0.0 0.00 0.00 0.00 18 1013.9
20260510203043 22 184 16.1 0.0 0.00 0.00 0.00 19 1013.7
20260510202601 22 198 17.7 0.0 0.00 0.00 0.00 18 1013.8
20260510202019 22 175 16.1 0.0 0.00 0.00 0.00 18 1013.7
20260510201530 21 182 19.3 0.0 0.00 0.00 0.00 17 1013.7
20260510201043 22 154 17.7 0.0 0.00 0.00 0.00 16 1013.8
20260510200558 22 169 17.7 0.0 0.00 0.00 0.00 17 1013.9
20260510200009 22 198 17.7 0.0 0.00 0.00 0.00 17 1013.9
20260510195524 21 150 19.3 0.0 0.00 0.00 0.00 17 1014.0
20260510195034 21 167 20.9 0.0 0.00 0.00 0.00 17 1014.0
20260510194551 21 172 20.9 0.0 0.00 0.00 0.00 18 1014.0
20260510194003 21 208 19.3 0.0 0.00 0.00 0.00 17 1014.0
20260510193518 21 191 19.3 0.0 0.00 0.00 0.00 19 1014.1
20260510193034 21 168 19.3 0.0 0.00 0.00 0.00 19 1014.0
20260510192549 21 207 19.3 0.0 0.00 0.00 0.00 19 1014.2
20260510192001 21 151 17.7 0.0 0.00 0.00 0.00 19 1014.4
20260510191514 21 190 16.1 0.0 0.00 0.00 0.00 20 1014.4
20260510191030 21 195 19.3 0.0 0.00 0.00 0.00 20 1014.6
20260510190543 21 196 17.7 0.0 0.00 0.00 0.00 20 1014.4
20260510190103 21 147 17.7 0.0 0.00 0.00 0.00 21 1014.6
20260510185506 20 155 19.3 0.0 0.00 0.00 0.00 22 1014.8
20260510185023 20 136 22.5 0.0 0.00 0.00 0.00 21 1014.7
20260510184541 20 165 22.5 0.0 0.00 0.00 0.00 22 1014.7
20260510184054 20 190 22.5 0.0 0.00 0.00 0.00 21 1014.8
20260510183503 20 156 20.9 0.0 0.00 0.00 0.00 23 1014.8
20260510183021 20 138 22.5 0.0 0.00 0.00 0.00 23 1014.9
20260510182541 20 130 24.1 0.0 0.00 0.00 0.00 24 1015.0
20260510182056 20 196 24.1 0.0 0.00 0.00 0.00 22 1014.9
20260510181509 20 176 24.1 0.0 0.00 0.00 0.00 23 1015.0
20260510181025 20 148 25.7 0.0 0.00 0.00 0.00 23 1015.1
20260510180536 20 144 24.1 0.0 0.00 0.00 0.00 24 1015.2
20260510180056 20 127 22.5 0.0 0.00 0.00 0.00 24 1015.2
20260510175509 19 120 19.3 0.0 0.00 0.00 0.00 24 1015.3
20260510175022 19 189 20.9 0.0 0.00 0.00 0.00 25 1015.4
20260510174536 19 172 22.5 0.0 0.00 0.00 0.00 24 1015.5
20260510174050 18 157 22.5 0.0 0.00 0.00 0.00 25 1015.5
20260510173504 18 133 22.5 0.0 0.00 0.00 0.00 26 1015.5
20260510173016 18 178 22.5 0.0 0.00 0.00 0.00 26 1015.5
20260510172532 18 122 20.9 0.0 0.00 0.00 0.00 25 1015.6
20260510172045 18 114 22.5 0.0 0.00 0.00 0.00 26 1015.5
20260510171604 18 123 25.7 0.0 0.00 0.00 0.00 27 1015.5
20260510171010 18 168 22.5 0.0 0.00 0.00 0.00 27 1015.6
20260510170526 17 161 22.5 0.0 0.00 0.00 0.00 26 1015.6
20260510170101 17 138 24.1 0.0 0.00 0.00 0.00 27 1015.9
20260510165557 17 146 24.1 0.0 0.00 0.00 0.00 27 1016.0
20260510165007 17 149 22.5 0.0 0.00 0.00 0.00 27 1016.1
20260510164520 17 164 24.1 0.0 0.00 0.00 0.00 30 1016.0
20260510164034 17 161 24.1 0.0 0.00 0.00 0.00 29 1016.1
20260510163547 17 122 24.1 0.0 0.00 0.00 0.00 29 1016.2
20260510163059 17 168 24.1 0.0 0.00 0.00 0.00 30 1016.2
20260510162517 17 138 24.1 0.0 0.00 0.00 0.00 29 1016.4
20260510162030 17 143 24.1 0.0 0.00 0.00 0.00 29 1016.4
20260510161546 16 135 24.1 0.0 0.00 0.00 0.00 30 1016.4
20260510161103 16 173 24.1 0.0 0.00 0.00 0.00 29 1016.5
20260510160514 16 155 25.7 0.0 0.00 0.00 0.00 30 1016.5
20260510160030 16 129 25.7 0.0 0.00 0.00 0.00 31 1016.6
20260510155547 16 110 24.1 0.0 0.00 0.00 0.00 31 1016.6
20260510155002 16 159 22.5 0.0 0.00 0.00 0.00 30 1016.7
20260510154520 16 193 24.1 0.0 0.00 0.00 0.00 30 1016.8
20260510154036 16 144 22.5 0.0 0.00 0.00 0.00 32 1016.8
20260510153557 16 171 22.5 0.0 0.00 0.00 0.00 31 1016.9
20260510153029 15 147 24.1 0.0 0.00 0.00 0.00 31 1017.0
20260510152528 15 154 22.5 0.0 0.00 0.00 0.00 32 1017.0
20260510152044 15 165 20.9 0.0 0.00 0.00 0.00 32 1017.0
20260510151559 15 151 16.1 0.0 0.00 0.00 0.00 33 1017.1
20260510151012 13 144 6.4 0.0 0.00 0.00 0.00 37 1017.1
20260510150532 13 65 4.8 0.0 0.00 0.00 0.00 42 1017.3
20260510150048 12 33 6.4 0.0 0.00 0.00 0.00 44 1017.4
20260510145603 12 74 6.4 0.0 0.00 0.00 0.00 45 1017.4
20260510145018 12 76 8.0 0.0 0.00 0.00 0.00 45 1017.5
20260510144536 12 76 11.3 0.0 0.00 0.00 0.00 45 1017.5
20260510144055 12 126 14.5 0.0 0.00 0.00 0.00 45 1017.7
20260510143510 11 174 12.9 0.0 0.00 0.00 0.00 46 1017.5
20260510143023 11 166 11.3 0.0 0.00 0.00 0.00 47 1017.6
20260510142539 10 151 14.5 0.0 0.00 0.00 0.00 49 1017.7
20260510142055 10 186 16.1 0.0 0.00 0.00 0.00 50 1017.8
20260510141508 9 192 16.1 0.0 0.00 0.00 0.00 50 1017.8
20260510141025 9 186 16.1 0.0 0.00 0.00 0.00 50 1017.7
20260510140540 8 180 17.7 0.0 0.00 0.00 0.00 53 1017.5
20260510140055 7 177 17.7 0.0 0.00 0.00 0.00 55 1017.5
20260510135511 7 200 17.7 0.0 0.00 0.00 0.00 56 1017.6
20260510135029 6 179 16.1 0.0 0.00 0.00 0.00 56 1017.7
20260510134546 6 204 16.1 0.0 0.00 0.00 0.00 57 1017.8
20260510134059 6 201 14.5 0.0 0.00 0.00 0.00 58 1017.8
20260510133510 6 209 14.5 0.0 0.00 0.00 0.00 59 1017.9
20260510133026 6 178 12.9 0.0 0.00 0.00 0.00 61 1017.9
20260510132545 5 196 11.3 0.0 0.00 0.00 0.00 61 1018.0
20260510132102 5 194 11.3 0.0 0.00 0.00 0.00 64 1018.1
20260510131511 5 170 12.9 0.0 0.00 0.00 0.00 63 1018.2
20260510131027 4 207 12.9 0.0 0.00 0.00 0.00 65 1018.2
20260510130544 3 211 12.9 0.0 0.00 0.00 0.00 66 1018.3
20260510130101 3 196 12.9 0.0 0.00 0.00 0.00 66 1018.3
20260510125511 3 189 11.3 0.0 0.00 0.00 0.00 68 1018.3
20260510125030 2 173 8.0 0.0 0.00 0.00 0.00 69 1018.3
20260510124557 1 175 4.8 0.0 0.00 0.00 0.00 72 1018.3
20260510124104 1 162 3.2 0.0 0.00 0.00 0.00 69 1018.2
20260510123511 2 162 8.0 0.0 0.00 0.00 0.00 65 1018.2
20260510123024 2 162 14.5 0.0 0.00 0.00 0.00 68 1018.1
20260510122539 2 204 16.1 0.0 0.00 0.00 0.00 68 1018.0
20260510122054 2 202 14.5 0.0 0.00 0.00 0.00 68 1017.9
20260510121506 2 194 12.9 0.0 0.00 0.00 0.00 68 1017.9
20260510121022 2 204 14.5 0.0 0.00 0.00 0.00 67 1017.9
20260510120538 2 206 16.1 0.0 0.00 0.00 0.00 67 1018.2
20260510120052 2 208 16.1 0.0 0.00 0.00 0.00 68 1018.0
20260510115507 2 211 16.1 0.0 0.00 0.00 0.00 68 1018.0
20260510115024 2 209 14.5 0.0 0.00 0.00 0.00 69 1017.9
20260510114543 2 218 12.9 0.0 0.00 0.00 0.00 69 1017.9
20260510114101 2 185 14.5 0.0 0.00 0.00 0.00 69 1018.0
20260510113514 2 183 17.7 0.0 0.00 0.00 0.00 68 1017.8
20260510113040 2 192 17.7 0.0 0.00 0.00 0.00 68 1017.7
20260510112556 2 194 17.7 0.0 0.00 0.00 0.00 67 1017.6
20260510112007 2 190 12.9 0.0 0.00 0.00 0.00 67 1017.6
20260510111524 2 196 6.4 0.0 0.00 0.00 0.00 69 1017.7
20260510111041 2 174 4.8 0.0 0.00 0.00 0.00 68 1017.7
20260510110558 2 158 6.4 0.0 0.00 0.00 0.00 67 1017.8
20260510110022 2 158 11.3 0.0 0.00 0.00 0.00 67 1017.7
20260510105529 2 179 14.5 0.0 0.00 0.00 0.00 68 1017.8
20260510105049 2 185 14.5 0.0 0.00 0.00 0.00 68 1017.6
20260510104605 2 200 14.5 0.0 0.00 0.00 0.00 68 1017.7
20260510104018 2 205 11.3 0.0 0.00 0.00 0.00 69 1017.8
20260510103534 2 200 11.3 0.0 0.00 0.00 0.00 69 1017.8
20260510103054 2 194 11.3 0.0 0.00 0.00 0.00 71 1017.9
20260510102505 1 187 9.7 0.0 0.00 0.00 0.00 70 1017.9
20260510102020 2 190 8.0 0.0 0.00 0.00 0.00 69 1017.9
20260510101539 2 178 8.0 0.0 0.00 0.00 0.00 69 1017.8
20260510101050 2 167 9.7 0.0 0.00 0.00 0.00 68 1017.7
20260510100604 2 182 12.9 0.0 0.00 0.00 0.00 68 1017.7
20260510100021 2 200 12.9 0.0 0.00 0.00 0.00 68 1017.6
20260510095528 2 202 12.9 0.0 0.00 0.00 0.00 68 1017.4
20260510095048 2 196 12.9 0.0 0.00 0.00 0.00 67 1017.5
20260510094603 2 161 12.9 0.0 0.00 0.00 0.00 66 1017.6
20260510094012 3 189 12.9 0.0 0.00 0.00 0.00 66 1017.6
20260510093526 3 192 12.9 0.0 0.00 0.00 0.00 65 1017.3
20260510093042 3 193 14.5 0.0 0.00 0.00 0.00 65 1017.2
20260510092600 3 192 14.5 0.0 0.00 0.00 0.00 66 1017.2
20260510092013 3 195 11.3 0.0 0.00 0.00 0.00 66 1017.2
20260510091538 3 192 9.7 0.0 0.00 0.00 0.00 66 1017.2
20260510091058 2 190 9.7 0.0 0.00 0.00 0.00 67 1017.2
20260510090511 3 159 11.3 0.0 0.00 0.00 0.00 66 1017.3
20260510090033 3 162 11.3 0.0 0.00 0.00 0.00 65 1017.3
20260510085549 3 149 12.9 0.0 0.00 0.00 0.00 65 1017.2
20260510085002 3 136 14.5 0.0 0.00 0.00 0.00 63 1017.2
20260510084520 3 190 16.1 0.0 0.00 0.00 0.00 63 1017.3
20260510084038 4 200 16.1 0.0 0.00 0.00 0.00 62 1017.1
20260510083558 4 202 17.7 0.0 0.00 0.00 0.00 62 1017.1
20260510083013 4 186 17.7 0.0 0.00 0.00 0.00 62 1017.1
20260510082532 4 193 16.1 0.0 0.00 0.00 0.00 64 1017.1
20260510082055 3 192 14.5 0.0 0.00 0.00 0.00 65 1017.0
20260510081517 3 207 14.5 0.0 0.00 0.00 0.00 65 1017.0
20260510081036 3 199 14.5 0.0 0.00 0.00 0.00 66 1017.0
20260510080559 3 209 14.5 0.0 0.00 0.00 0.00 66 1017.0
20260510080013 3 194 12.9 0.0 0.00 0.00 0.00 67 1016.9
20260510075534 3 178 12.9 0.0 0.00 0.00 0.00 67 1016.9
20260510075053 3 205 11.3 0.0 0.00 0.00 0.00 66 1016.8
20260510074512 3 188 9.7 0.0 0.00 0.00 0.00 66 1016.8
20260510074031 3 188 11.3 0.0 0.00 0.00 0.00 66 1016.8
20260510073550 3 198 11.3 0.0 0.00 0.00 0.00 64 1016.8
20260510073012 4 197 11.3 0.0 0.00 0.00 0.00 62 1016.7
20260510072530 5 188 12.9 0.0 0.00 0.00 0.00 61 1016.8
20260510072056 5 186 12.9 0.0 0.00 0.00 0.00 61 1016.8
20260510071518 4 194 12.9 0.0 0.00 0.00 0.00 62 1016.6
20260510071033 4 190 11.3 0.0 0.00 0.00 0.00 63 1016.6
20260510070551 4 200 9.7 0.0 0.00 0.00 0.00 64 1016.7
20260510070010 3 182 9.7 0.0 0.00 0.00 0.00 66 1016.6
20260510065530 3 177 11.3 0.0 0.00 0.00 0.00 64 1016.6
20260510065054 3 179 12.9 0.0 0.00 0.00 0.00 64 1016.6
20260510064522 3 200 11.3 0.0 0.00 0.00 0.00 66 1016.4
20260510064028 3 193 9.7 0.0 0.00 0.00 0.00 68 1016.3
20260510063552 3 184 6.4 0.0 0.00 0.00 0.00 67 1016.2
20260510063014 3 181 8.0 0.0 0.00 0.00 0.00 66 1016.3
20260510062538 3 184 9.7 0.0 0.00 0.00 0.00 66 1016.2
20260510062103 3 189 9.7 0.0 0.00 0.00 0.00 66 1016.2
20260510061524 3 193 9.7 0.0 0.00 0.00 0.00 65 1016.2
20260510061047 3 188 9.7 0.0 0.00 0.00 0.00 64 1016.2
20260510060506 4 184 9.7 0.0 0.00 0.00 0.00 63 1016.2
20260510060032 4 194 9.7 0.0 0.00 0.00 0.00 62 1016.2
20260510055554 4 184 9.7 0.0 0.00 0.00 0.00 64 1016.2
20260510055010 3 189 9.7 0.0 0.00 0.00 0.00 65 1016.0
20260510054536 3 183 9.7 0.0 0.00 0.00 0.00 65 1015.8
20260510054100 3 182 9.7 0.0 0.00 0.00 0.00 65 1015.8
20260510053521 3 184 9.7 0.0 0.00 0.00 0.00 67 1015.7
20260510053044 3 171 8.0 0.0 0.00 0.00 0.00 67 1015.8
20260510052501 3 186 8.0 0.0 0.00 0.00 0.00 67 1015.7
20260510052024 3 178 9.7 0.0 0.00 0.00 0.00 66 1015.8
20260510051553 3 169 8.0 0.0 0.00 0.00 0.00 67 1015.8
20260510051009 2 169 8.0 0.0 0.00 0.00 0.00 67 1015.9
20260510050532 2 169 9.7 0.0 0.00 0.00 0.00 67 1015.9
20260510050055 3 155 8.0 0.0 0.00 0.00 0.00 66 1015.9
20260510045519 2 179 9.7 0.0 0.00 0.00 0.00 67 1015.9
20260510045041 2 175 11.3 0.0 0.00 0.00 0.00 67 1015.9
20260510044500 3 167 9.7 0.0 0.00 0.00 0.00 66 1015.8
20260510044024 3 170 9.7 0.0 0.00 0.00 0.00 65 1015.8
20260510043548 3 190 8.0 0.0 0.00 0.00 0.00 65 1015.7
20260510043008 3 207 9.7 0.0 0.00 0.00 0.00 66 1015.8
20260510042534 3 205 9.7 0.0 0.00 0.00 0.00 66 1015.7
20260510042102 3 201 9.7 0.0 0.00 0.00 0.00 65 1015.6
20260510041518 4 200 8.0 0.0 0.00 0.00 0.00 60 1015.5
20260510041044 5 196 8.0 0.0 0.00 0.00 0.00 55 1015.4
20260510040506 6 201 8.0 0.0 0.00 0.00 0.00 52 1015.2
20260510040033 7 202 8.0 0.0 0.00 0.00 0.00 50 1015.2
20260510035558 7 225 8.0 0.0 0.00 0.00 0.00 50 1015.1
20260510035019 7 321 8.0 0.0 0.00 0.00 0.00 52 1015.0
20260510034546 6 321 6.4 0.0 0.00 0.00 0.00 53 1014.9
20260510034000 6 321 6.4 0.0 0.00 0.00 0.00 52 1014.7
20260510033526 6 321 6.4 0.0 0.00 0.00 0.00 52 1014.6
20260510033117 7 321 8.0 0.0 0.00 0.00 0.00 51 1014.6
20260510032517 7 321 6.4 0.0 0.00 0.00 0.00 50 1014.4
20260510032042 8 321 3.2 0.0 0.00 0.00 0.00 48 1014.3
20260510031502 9 321 1.6 0.0 0.00 0.00 0.00 44 1014.1
20260510031026 10 321 3.2 0.0 0.00 0.00 0.00 43 1014.0
20260510030548 10 321 3.2 0.0 0.00 0.00 0.00 42 1014.0
20260510030022 11 321 4.8 0.0 0.00 0.00 0.00 40 1013.9
20260510025537 11 321 4.8 0.0 0.00 0.00 0.00 39 1013.8
20260510025004 12 321 3.2 0.0 0.00 0.00 0.00 38 1013.7
20260510024528 12 321 3.2 0.0 0.00 0.00 0.00 37 1013.6
20260510024059 12 321 3.2 0.0 0.00 0.00 0.00 37 1013.5
20260510023524 12 321 3.2 0.0 0.00 0.00 0.00 35 1013.5
20260510023049 13 321 3.2 0.0 0.00 0.00 0.00 35 1013.5
20260510022520 13 321 4.8 0.0 0.00 0.00 0.00 35 1013.5
20260510022044 13 321 6.4 0.0 0.00 0.00 0.00 34 1013.4
20260510021517 14 321 6.4 0.0 0.00 0.00 0.00 35 1013.4
20260510021036 14 321 8.0 0.0 0.00 0.00 0.00 33 1013.4
20260510020504 15 326 9.7 0.0 0.00 0.00 0.00 32 1013.2
20260510020032 15 329 9.7 0.0 0.00 0.00 0.00 30 1013.2
20260510015600 15 329 9.7 0.0 0.00 0.00 0.00 29 1013.2
20260510015027 15 319 9.7 0.0 0.00 0.00 0.00 30 1013.1
20260510014557 15 313 9.7 0.0 0.00 0.00 0.00 30 1013.2
20260510014021 15 318 9.7 0.0 0.00 0.00 0.00 30 1013.2
20260510013549 15 329 9.7 0.0 0.00 0.00 0.00 29 1013.2
20260510013014 15 340 9.7 0.0 0.00 0.00 0.00 30 1013.1
20260510012549 15 316 11.3 0.0 0.00 0.00 0.00 29 1013.1
20260510012015 15 330 11.3 0.0 0.00 0.00 0.00 29 1013.0
20260510011548 15 329 8.0 0.0 0.00 0.00 0.00 29 1013.0
20260510011013 15 29 4.8 0.0 0.00 0.00 0.00 30 1013.0
20260510010547 15 27 6.4 0.0 0.00 0.00 0.00 29 1013.0
20260510010016 15 34 8.0 0.0 0.00 0.00 0.00 29 1013.0
20260510005546 15 28 9.7 0.0 0.00 0.00 0.00 30 1013.1
20260510005018 15 346 11.3 0.0 0.00 0.00 0.00 30 1013.0
20260510004545 15 339 12.9 0.0 0.00 0.00 0.00 29 1013.0
20260510004026 15 324 11.3 0.0 0.00 0.00 0.00 29 1012.9
20260510003553 15 355 12.9 0.0 0.00 0.00 0.00 29 1012.9
20260510003020 15 360 14.5 0.0 0.00 0.00 0.00 28 1012.9
20260510002552 15 350 14.5 0.0 0.00 0.00 0.00 28 1012.9
20260510002021 15 360 14.5 0.0 0.00 0.00 0.00 28 1012.9
20260510001556 15 19 16.1 0.0 0.00 0.00 0.00 27 1012.9
20260510001022 15 351 17.7 0.0 0.00 0.00 0.00 28 1012.7
20260510000558 15 344 16.1 0.0 0.00 0.00 0.00 27 1012.7
20260510000035 16 355 14.5 0.0 0.00 0.00 0.00 27 1012.6
20260509235604 16 323 16.1 0.0 0.00 0.00 0.00 25 1012.5
20260509235030 16 355 14.5 0.0 0.00 0.00 0.00 27 1012.6
20260509234519 16 300 12.9 0.0 0.00 0.00 0.00 26 1012.6
20260509234038 16 355 11.3 0.0 0.00 0.00 0.00 26 1012.6
20260509233505 16 24 12.9 0.0 0.00 0.00 0.00 28 1012.5
20260509233042 16 5 12.9 0.0 0.00 0.00 0.00 27 1012.6
20260509232512 16 331 9.7 0.0 0.00 0.00 0.00 27 1012.5
20260509232045 16 355 12.9 0.0 0.00 0.00 0.00 27 1012.6
20260509231517 16 355 16.1 0.0 0.00 0.00 0.00 26 1012.6
20260509231052 16 331 14.5 0.0 0.00 0.00 0.00 27 1012.6
20260509230526 16 330 16.1 0.0 0.00 0.00 0.00 28 1012.5
20260509230105 16 11 17.7 0.0 0.00 0.00 0.00 27 1012.6
20260509225535 16 360 16.1 0.0 0.00 0.00 0.00 28 1012.4
20260509225008 15 355 16.1 0.0 0.00 0.00 0.00 27 1012.4
20260509224555 15 348 12.9 0.0 0.00 0.00 0.00 27 1012.4
20260509224019 16 17 12.9 0.0 0.00 0.00 0.00 27 1012.4
20260509223553 16 345 16.1 0.0 0.00 0.00 0.00 26 1012.4
20260509223025 16 19 17.7 0.0 0.00 0.00 0.00 26 1012.4
20260509222601 15 15 16.1 0.0 0.00 0.00 0.00 27 1012.4
20260509222036 16 349 12.9 0.0 0.00 0.00 0.00 26 1012.4
20260509221510 16 311 12.9 0.0 0.00 0.00 0.00 27 1012.3
20260509221045 15 5 16.1 0.0 0.00 0.00 0.00 26 1012.5
20260509220517 16 5 17.7 0.0 0.00 0.00 0.00 26 1012.4
20260509220052 16 335 14.5 0.0 0.00 0.00 0.00 28 1012.3
20260509215526 15 348 12.9 0.0 0.00 0.00 0.00 27 1012.3
20260509215002 15 18 11.3 0.0 0.00 0.00 0.00 27 1012.5
20260509214543 15 44 12.9 0.0 0.00 0.00 0.00 27 1012.4
20260509214022 15 271 14.5 0.0 0.00 0.00 0.00 27 1012.5
20260509213603 16 322 16.1 0.0 0.00 0.00 0.00 27 1012.4
20260509213034 15 14 16.1 0.0 0.00 0.00 0.00 29 1012.5
20260509212509 15 360 19.3 0.0 0.00 0.00 0.00 28 1012.4
20260509212046 15 5 17.7 0.0 0.00 0.00 0.00 28 1012.3
20260509211520 15 360 16.1 0.0 0.00 0.00 0.00 28 1012.4
20260509211103 15 342 17.7 0.0 0.00 0.00 0.00 27 1012.4
20260509210537 15 355 12.9 0.0 0.00 0.00 0.00 29 1012.3
20260509210014 15 31 11.3 0.0 0.00 0.00 0.00 27 1012.3
20260509205552 15 317 11.3 0.0 0.00 0.00 0.00 26 1012.4